• In Romania
  • List of Countries
  • For 7 days
  • Water Temperature
  • Satellite Maps
  • Weather Map
  • Weather Widgets
  • user-avatar
    Login

    Hourly Weather Cam Ranh

    Today, 28 May, Monday

    Time Temperature Precipitation Wind Pressure Humidity
    00:00 +28°C° 0 mm 1 mps 752 mmHg 89%
    01:00 +28°C° 0 mm 1 mps 753 mmHg 88%
    02:00 +28°C° 0 mm 1 mps 752 mmHg 87%
    03:00 +28°C° 0 mm 1 mps 752 mmHg 86%
    04:00 +27°C° 0 mm 2 mps 752 mmHg 85%
    05:00 +29°C° 0 mm 2 mps 752 mmHg 79%
    06:00 +30°C° 0 mm 2 mps 753 mmHg 73%
    07:00 +31°C° 0 mm 2 mps 753 mmHg 67%
    08:00 +34°C° 0 mm 2 mps 753 mmHg 59%
    09:00 +36°C° 0 mm 2 mps 753 mmHg 52%
    10:00 +38°C° 0 mm 2 mps 753 mmHg 45%
    11:00 +38°C° 0 mm 2 mps 752 mmHg 45%
    12:00 +38°C° 0 mm 3 mps 752 mmHg 44%
    13:00 +39°C° 0 mm 3 mps 752 mmHg 44%
    14:00 +38°C° 0.1 mm 3 mps 751 mmHg 49%
    15:00 +37°C° 0.1 mm 3 mps 751 mmHg 54%
    16:00 +36°C° 0.1 mm 3 mps 751 mmHg 60%
    17:00 +34°C° 0.9 mm 3 mps 751 mmHg 70%
    18:00 +31°C° 0.9 mm 2 mps 751 mmHg 80%
    19:00 +29°C° 0.9 mm 2 mps 751 mmHg 90%
    20:00 +29°C° 0.2 mm 2 mps 752 mmHg 91%
    21:00 +28°C° 0.2 mm 1 mps 752 mmHg 92%
    22:00 +28°C° 0.2 mm 1 mps 753 mmHg 93%
    23:00 +28°C° 0 mm 1 mps 753 mmHg 93%

    Tomorrow, 29 May, Tuesday

    Time Temperature Precipitation Wind Pressure Humidity
    00:00 +28°C° 0 mm 1 mps 752 mmHg 93%
    01:00 +27°C° 0 mm 1 mps 752 mmHg 92%
    02:00 +27°C° 0 mm 1 mps 752 mmHg 92%
    03:00 +27°C° 0 mm 1 mps 752 mmHg 91%
    04:00 +27°C° 0 mm 1 mps 751 mmHg 90%
    05:00 +28°C° 0 mm 2 mps 752 mmHg 85%
    06:00 +29°C° 0 mm 2 mps 752 mmHg 80%
    07:00 +30°C° 0 mm 2 mps 753 mmHg 75%
    08:00 +34°C° 0 mm 2 mps 753 mmHg 65%
    09:00 +36°C° 0 mm 2 mps 753 mmHg 56%
    10:00 +38°C° 0 mm 2 mps 753 mmHg 47%
    11:00 +38°C° 0.1 mm 2 mps 752 mmHg 48%
    12:00 +38°C° 0.1 mm 3 mps 752 mmHg 49%
    13:00 +38°C° 0.1 mm 3 mps 751 mmHg 50%
    14:00 +37°C° 0.1 mm 3 mps 751 mmHg 55%
    15:00 +36°C° 0.1 mm 3 mps 751 mmHg 59%
    16:00 +35°C° 0.1 mm 3 mps 750 mmHg 64%
    17:00 +34°C° 0.1 mm 2 mps 751 mmHg 72%
    18:00 +31°C° 0.1 mm 2 mps 751 mmHg 81%
    19:00 +29°C° 0.1 mm 1 mps 752 mmHg 89%
    20:00 +29°C° 0.1 mm 1 mps 752 mmHg 91%
    21:00 +29°C° 0.1 mm 1 mps 752 mmHg 92%
    22:00 +28°C° 0.1 mm 1 mps 753 mmHg 93%
    23:00 +28°C° 0 mm 1 mps 753 mmHg 93%

    Day after tomorrow, 30 May, Wednesday

    Time Temperature Precipitation Wind Pressure Humidity
    00:00 +28°C° 0 mm 1 mps 752 mmHg 93%
    01:00 +27°C° 0 mm 1 mps 752 mmHg 93%
    02:00 +27°C° 0 mm 1 mps 752 mmHg 92%
    03:00 +27°C° 0 mm 1 mps 752 mmHg 91%
    04:00 +27°C° 0 mm 2 mps 752 mmHg 90%
    05:00 +28°C° 0 mm 1 mps 752 mmHg 83%
    06:00 +29°C° 0 mm 1 mps 752 mmHg 76%
    07:00 +31°C° 0 mm 1 mps 753 mmHg 70%
    08:00 +33°C° 0 mm 1 mps 753 mmHg 61%
    09:00 +35°C° 0 mm 1 mps 753 mmHg 53%
    10:00 +37°C° 0 mm 1 mps 753 mmHg 45%
    11:00 +38°C° 0 mm 2 mps 752 mmHg 45%
    12:00 +38°C° 0 mm 2 mps 752 mmHg 46%
    13:00 +39°C° 0 mm 2 mps 751 mmHg 47%
    14:00 +38°C° 0.1 mm 3 mps 751 mmHg 51%
    15:00 +37°C° 0.1 mm 3 mps 750 mmHg 55%
    16:00 +36°C° 0.1 mm 3 mps 750 mmHg 59%
    17:00 +34°C° 0.1 mm 3 mps 750 mmHg 68%
    18:00 +31°C° 0.1 mm 2 mps 751 mmHg 78%
    19:00 +29°C° 0.1 mm 2 mps 751 mmHg 87%
    20:00 +29°C° 0.1 mm 2 mps 752 mmHg 89%
    21:00 +29°C° 0.1 mm 1 mps 752 mmHg 91%
    22:00 +28°C° 0.1 mm 1 mps 753 mmHg 93%
    23:00 +28°C° 0 mm 1 mps 753 mmHg 93%

    31 May, Thursday

    Time Temperature Precipitation Wind Pressure Humidity
    00:00 +28°C° 0 mm 2 mps 752 mmHg 93%
    01:00 +28°C° 0 mm 2 mps 752 mmHg 93%
    02:00 +27°C° 0 mm 2 mps 752 mmHg 92%
    03:00 +27°C° 0 mm 2 mps 752 mmHg 91%
    04:00 +27°C° 0 mm 2 mps 752 mmHg 90%
    05:00 +28°C° 0.3 mm 2 mps 752 mmHg 84%
    06:00 +30°C° 0.3 mm 1 mps 752 mmHg 78%
    07:00 +31°C° 0.3 mm 1 mps 753 mmHg 72%
    08:00 +33°C° 0.1 mm 1 mps 753 mmHg 63%
    09:00 +35°C° 0.1 mm 1 mps 753 mmHg 54%
    10:00 +37°C° 0.1 mm 1 mps 753 mmHg 45%
    11:00 +38°C° 0.1 mm 2 mps 752 mmHg 45%
    12:00 +38°C° 0.1 mm 3 mps 752 mmHg 46%
    13:00 +39°C° 0.1 mm 3 mps 751 mmHg 46%
    14:00 +38°C° 0.1 mm 3 mps 751 mmHg 50%
    15:00 +37°C° 0.1 mm 3 mps 750 mmHg 54%
    16:00 +36°C° 0.1 mm 4 mps 750 mmHg 58%
    17:00 +34°C° 0.1 mm 3 mps 750 mmHg 67%
    18:00 +31°C° 0.1 mm 3 mps 751 mmHg 75%
    19:00 +29°C° 0.1 mm 3 mps 751 mmHg 83%
    20:00 +29°C° 0.2 mm 3 mps 752 mmHg 85%
    21:00 +29°C° 0.2 mm 3 mps 752 mmHg 87%
    22:00 +28°C° 0.2 mm 2 mps 753 mmHg 88%
    23:00 +28°C° 0.2 mm 2 mps 752 mmHg 88%

    1 June, Friday

    Time Temperature Precipitation Wind Pressure Humidity
    00:00 +28°C° 0.2 mm 2 mps 752 mmHg 88%
    01:00 +28°C° 0.2 mm 2 mps 752 mmHg 87%
    02:00 +28°C° 0 mm 2 mps 752 mmHg 87%
    03:00 +27°C° 0 mm 2 mps 751 mmHg 87%
    04:00 +27°C° 0 mm 2 mps 751 mmHg 86%
    05:00 +28°C° 0 mm 1 mps 752 mmHg 81%
    06:00 +30°C° 0 mm 1 mps 752 mmHg 75%
    07:00 +31°C° 0 mm 1 mps 752 mmHg 69%
    08:00 +34°C° 0 mm 2 mps 752 mmHg 61%
    09:00 +36°C° 0 mm 2 mps 752 mmHg 53%
    10:00 +39°C° 0 mm 2 mps 752 mmHg 45%
    11:00 +39°C° 0.1 mm 3 mps 752 mmHg 45%
    12:00 +39°C° 0.1 mm 3 mps 751 mmHg 46%
    13:00 +40°C° 0.1 mm 4 mps 751 mmHg 46%
    14:00 +38°C° 0.5 mm 4 mps 750 mmHg 54%
    15:00 +36°C° 0.5 mm 4 mps 750 mmHg 62%
    16:00 +35°C° 0.5 mm 4 mps 750 mmHg 70%
    17:00 +33°C° 1.1 mm 4 mps 750 mmHg 77%
    18:00 +30°C° 1.1 mm 4 mps 751 mmHg 83%
    19:00 +29°C° 1.1 mm 3 mps 751 mmHg 89%
    20:00 +29°C° 0.3 mm 3 mps 752 mmHg 90%
    21:00 +28°C° 0.3 mm 3 mps 752 mmHg 91%
    22:00 +28°C° 0.3 mm 3 mps 752 mmHg 91%
    23:00 +28°C° 0 mm 3 mps 752 mmHg 91%

    2 June, Saturday

    Time Temperature Precipitation Wind Pressure Humidity
    00:00 +27°C° 0 mm 3 mps 751 mmHg 91%
    01:00 +27°C° 0 mm 3 mps 751 mmHg 91%
    02:00 +27°C° 0 mm 3 mps 751 mmHg 90%
    03:00 +27°C° 0 mm 3 mps 751 mmHg 89%
    04:00 +27°C° 0 mm 2 mps 751 mmHg 88%
    05:00 +28°C° 0 mm 2 mps 751 mmHg 84%
    06:00 +29°C° 0 mm 2 mps 752 mmHg 80%
    07:00 +30°C° 0 mm 2 mps 752 mmHg 76%
    08:00 +31°C° 0 mm 2 mps 752 mmHg 73%
    09:00 +32°C° 0 mm 2 mps 752 mmHg 69%
    10:00 +34°C° 0 mm 2 mps 752 mmHg 66%
    11:00 +36°C° 0 mm 3 mps 751 mmHg 57%
    12:00 +38°C° 0 mm 4 mps 750 mmHg 49%
    13:00 +41°C° 0 mm 4 mps 750 mmHg 41%
    14:00 +39°C° 0.1 mm 5 mps 750 mmHg 47%
    15:00 +37°C° 0.1 mm 5 mps 749 mmHg 53%
    16:00 +35°C° 0.1 mm 6 mps 749 mmHg 59%
    17:00 +33°C° 1.3 mm 6 mps 750 mmHg 68%
    18:00 +32°C° 1.3 mm 6 mps 750 mmHg 77%
    19:00 +29°C° 1.3 mm 5 mps 751 mmHg 86%
    20:00 +29°C° 0.3 mm 5 mps 751 mmHg 86%
    21:00 +29°C° 0.3 mm 5 mps 752 mmHg 86%
    22:00 +29°C° 0.3 mm 5 mps 752 mmHg 87%
    23:00 +28°C° 0.8 mm 5 mps 752 mmHg 87%
    Show more